SKU weather

Skiros Airport
Skiros Island, Euboea, Greece

Public forecast

Using degrees Celsius for public forecast. Weather courtesy of forecast.io.

METAR (pilot weather report)

Retrieved 2018/12/16 06:50 UTC (2 hours ago):

LGSY 160650Z VRB02KT 9999 FEW018TCU SCT030 11/10 Q1011 RMK SCT080 SCT180 BLU

TAF (pilot weather forecast)

Forecast is more than 12 hours old.

Closest forecast is Skiathos Island National Airport, 47.5 nm (88.0 km) WNW. Retrieved 2012/09/27 00:18 UTC (6 years ago):

TAF LGSK 272300Z 2800/2909 01010KT 9999 FEW020